User: anonymous   Login
Location: Martley
(52.2333°N, 2.3667°W)
Time: 06:40:30
(UTC+00:00)
Language:

Cosmos 2263 Rocket - Orbit

View from above orbital plane
View from above orbital plane
View from above satellite
View from above satellite

Ground track
Ground track

The orbit data is extracted from the following two-line orbital elements,

1 22803U 93059B   20049.87355138 +.00000209 +00000-0 +12820-3 0  9993
2 22803 070.9923 351.2666 0018200 331.3526 028.6596 14.16817605366369
Epoch (UTC): 18 February 2020 20:57:54
Eccentricity: 0.0018200
inclination: 70.9923°
perigee height: 823 km
apogee height: 849 km
right ascension of ascending node: 351.2666°
argument of perigee: 331.3526°
revolutions per day: 14.16817605
mean anomaly at epoch: 28.6596°
orbit number at epoch: 36636

The dashed part of the orbit path shows where the satellite is in the earth's shadow,  

DLR